Voltar ao catálogo

CZ-2C DEB

AtivoSSO
NORAD 36092·DEBRIS·🇨🇳 China

Lançado Nov 12, 2009 de Jiuquan Satellite Launch Center

Loading…

Próximas Passagens (próximas 24 horas)

TLE

AtualizadoSource: Space-Track

Época: Sep 13, 2026, 23:18 UTC

1 36092U 09061E   26256.97091064  .00001474  00000-0  41785-3 0  9997
2 36092  98.7586 267.5861 0121631  93.3865 297.7893 14.42810075878154

Acompanhe CZ-2C DEB em tempo real com AllMySat

Download on the App Store